This demonstration page uses our WeatherBlox Daily Observations layout. Learn more.

Left ArrowRight Arrow

40.97296, -117.73568

Hourly Observations for August 19, 2015

Temp ( °F °C ) Dew Point ( °F °C ) Humidity (%) Winds ( mph kmh ) Pressure ( in mb ) Visibility ( mi km ) Precip ( " mm )
12:56 am 00:56 Clear 52 11.1 27 -2.8 38 38 SSE 8 13 29.91 1013 10 16 0.00 0.00
1:56 am 01:56 Clear 52 11.1 27 -2.8 38 38 SSE 7 11 29.91 1013 10 16 0.00 0.00
2:56 am 02:56 Clear 50 10 25 -3.9 38 38 ESE 8 13 29.92 1013 10 16 0.00 0.00
3:56 am 03:56 Clear 49 9.4 27 -2.8 43 43 Calm 29.92 1013 10 16 0.00 0.00
4:56 am 04:56 Clear 48 8.9 28 -2.2 46 46 ESE 6 9 29.92 1013 10 16 0.00 0.00
5:56 am 05:56 Clear 48 8.9 27 -2.8 44 44 SSE 7 11 29.93 1014 10 16 0.00 0.00
6:56 am 06:56 Sunny 50 10 28 -2.2 43 43 SSE 7 11 29.95 1014 8 13 0.00 0.00
7:56 am 07:56 Sunny 59 15 27 -2.8 29 29 Calm 29.96 1014 9 14 0.00 0.00
8:56 am 08:56 Sunny 68 20 30 -1.1 24 24 VRB 3 6 29.95 1014 9 14 0.00 0.00
9:56 am 09:56 Sunny 77 25 28 -2.2 16 16 Calm 29.93 1014 9 14 0.00 0.00
10:56 am 10:56 Sunny 82 27.8 29 -1.7 14 14 VRB 3 6 29.90 1013 9 14 0.00 0.00
11:56 am 11:56 Sunny 88 31.1 28 -2.2 11 11 VRB 6 9 29.88 1012 9 14 0.00 0.00
12:56 pm 12:56 Sunny 90 32.2 28 -2.2 11 11 NNW 8 13 29.88 1012 10 16 0.00 0.00
1:56 pm 13:56 Sunny 91 32.8 28 -2.2 10 10 WSW 9 15 29.86 1011 9 14 0.00 0.00
2:56 pm 14:56 Sunny 95 35 26 -3.3 8 8 WNW 20 31 29.83 1010 9 14 0.00 0.00
3:56 pm 15:56 Sunny 94 34.4 24 -4.4 8 8 W 15 24 29.82 1010 8 13 0.00 0.00
4:56 pm 16:56 Sunny 93 33.9 24 -4.4 8 8 WSW 12 19 29.80 1009 8 13 0.00 0.00
5:56 pm 17:56 Sunny 92 33.3 26 -3.3 9 9 W 13 20 29.80 1009 7 11 0.00 0.00
6:56 pm 18:56 Sunny 89 31.7 27 -2.8 11 11 W 6 9 29.79 1009 7 11 0.00 0.00
7:56 pm 19:56 Clear 77 25 29 -1.7 17 17 SSE 5 7 29.80 1009 7 11 0.00 0.00
8:56 pm 20:56 Mostly Clear 72 22.2 31 -0.6 22 22 ESE 5 7 29.80 1009 7 11 0.00 0.00
9:56 pm 21:56 Mostly Clear 66 18.9 33 0.6 29 29 Calm 29.80 1009 7 11 0.00 0.00
10:56 pm 22:56 Partly Cloudy 62 16.7 28 -2.2 28 28 SSE 8 13 29.80 1009 8 13 0.00 0.00
11:56 pm 23:56 Clear 65 18.3 30 -1.1 27 27 NE 6 9 29.80 1009 8 13 0.00 0.00

Powered by AerisWeather